BAW9126 LIMJ-LFSB

Flight info

Callsign BAW9126
Flight time 0h 46m
Altitude 18000
Route LAGEN Q712 TESTO/N0442F380 DCT DEVOX DCT VOG DCT DESIP DCT PEPAG DCT ABESI N851 ELMUR T718 RIGVI
Aircraft A319/M-SDE3FGIJ1KRWXY/LB1

Departure

Time 2026-04-27 10:47
Airport Genoa Cristoforo Colombo Airport (LIMJ)

Arrival

Time 2026-04-27 11:34
Airport EuroAirport Basel–Mulhouse–Freiburg (LFSB)
Time Latitude Longitude Altitude Speed Heading
2026-04-27 10:00 44.41435 8.84959 20 ft 0 kts 60°
2026-04-27 10:39 44.41435 8.84958 20 ft 1 kts 60°
2026-04-27 10:40 44.41422 8.84929 20 ft 4 kts 58°
2026-04-27 10:40 44.41408 8.84897 20 ft 4 kts 57°
2026-04-27 10:40 44.41394 8.84865 20 ft 4 kts 61°
2026-04-27 10:40 44.41383 8.84834 22 ft 2 kts 75°
2026-04-27 10:41 44.41381 8.84802 21 ft 4 kts 103°
2026-04-27 10:41 44.41384 8.84786 20 ft 0 kts 105°
2026-04-27 10:43 44.41382 8.84796 20 ft 3 kts 103°
2026-04-27 10:43 44.41372 8.84847 20 ft 8 kts 105°
2026-04-27 10:43 44.41342 8.84941 23 ft 12 kts 146°
2026-04-27 10:43 44.41257 8.84926 21 ft 9 kts 194°
2026-04-27 10:44 44.41188 8.84899 20 ft 12 kts 196°
2026-04-27 10:44 44.41156 8.84886 19 ft 2 kts 195°
2026-04-27 10:44 44.41130 8.84875 19 ft 6 kts 198°
2026-04-27 10:44 44.41085 8.84857 19 ft 7 kts 176°
2026-04-27 10:45 44.41055 8.84924 19 ft 10 kts 107°
2026-04-27 10:45 44.41029 8.85023 18 ft 12 kts 127°
2026-04-27 10:45 44.41002 8.85155 17 ft 18 kts 103°
2026-04-27 10:45 44.40967 8.85354 21 ft 25 kts 105°
2026-04-27 10:46 44.40914 8.85622 21 ft 32 kts 105°
2026-04-27 10:46 44.40869 8.85936 24 ft 28 kts 78°
2026-04-27 10:46 44.40857 8.86037 23 ft 1 kts 224°
2026-04-27 10:46 44.40845 8.86003 22 ft 7 kts 260°
2026-04-27 10:47 44.40878 8.85791 22 ft 49 kts 285°
2026-04-27 10:47 44.41029 8.85035 19 ft 111 kts 285°
2026-04-27 10:47 44.41292 8.83759 110 ft 152 kts 286°
2026-04-27 10:47 44.41551 8.82355 772 ft 148 kts 283°
2026-04-27 10:48 44.41594 8.80913 1313 ft 155 kts 257°
2026-04-27 10:48 44.41108 8.79493 1615 ft 177 kts 226°
2026-04-27 10:48 44.39985 8.78620 2115 ft 192 kts 189°
2026-04-27 10:48 44.38665 8.78868 2861 ft 197 kts 154°
2026-04-27 10:49 44.37477 8.79797 3676 ft 199 kts 152°
2026-04-27 10:49 44.36246 8.80700 4500 ft 201 kts 153°
2026-04-27 10:49 44.34970 8.81545 5286 ft 205 kts 163°
2026-04-27 10:49 44.33551 8.81738 6063 ft 207 kts 185°
2026-04-27 10:50 44.32108 8.81612 6877 ft 209 kts 184°
2026-04-27 10:50 44.30646 8.81504 7667 ft 212 kts 183°
2026-04-27 10:50 44.29164 8.81403 8439 ft 215 kts 183°
2026-04-27 10:50 44.27660 8.81302 9206 ft 218 kts 183°
2026-04-27 10:51 44.26137 8.81199 9960 ft 221 kts 183°
2026-04-27 10:51 44.24589 8.81095 10708 ft 224 kts 183°
2026-04-27 10:51 44.23022 8.80991 11452 ft 227 kts 183°
2026-04-27 10:51 44.21435 8.80885 12186 ft 230 kts 184°
2026-04-27 10:52 44.19821 8.80776 12896 ft 234 kts 183°
2026-04-27 10:52 44.18182 8.80668 13589 ft 237 kts 182°
2026-04-27 10:52 44.16521 8.80556 14290 ft 241 kts 184°
2026-04-27 10:52 44.14917 8.79936 14936 ft 243 kts 215°
2026-04-27 10:53 44.13807 8.78177 15459 ft 251 kts 249°
2026-04-27 10:53 44.13634 8.73010 16112 ft 287 kts 274°
2026-04-27 10:53 44.13875 8.70224 16741 ft 292 kts 287°
2026-04-27 10:54 44.14698 8.67628 17433 ft 295 kts 304°
2026-04-27 10:54 44.16055 8.65430 17842 ft 310 kts 321°
2026-04-27 10:54 44.17927 8.63841 17989 ft 331 kts 335°
2026-04-27 10:54 44.20083 8.62458 18131 ft 352 kts 335°
2026-04-27 10:55 44.22366 8.60993 18390 ft 367 kts 335°
2026-04-27 10:55 44.24702 8.59480 18924 ft 373 kts 335°
2026-04-27 10:55 44.27069 8.57937 19530 ft 377 kts 335°
2026-04-27 10:55 44.29457 8.56372 20132 ft 381 kts 335°
2026-04-27 10:56 44.31863 8.54788 20737 ft 384 kts 335°
2026-04-27 10:56 44.34309 8.53237 21318 ft 388 kts 339°
2026-04-27 10:56 44.36922 8.52281 21893 ft 391 kts 352°
2026-04-27 10:56 44.39650 8.52135 22442 ft 394 kts
2026-04-27 10:57 44.42356 8.52822 22964 ft 398 kts 16°
2026-04-27 10:57 44.44922 8.54338 23475 ft 402 kts 28°
2026-04-27 10:57 44.47345 8.56327 23971 ft 406 kts 30°
2026-04-27 10:57 44.49781 8.58343 24466 ft 408 kts 30°
2026-04-27 10:58 44.52233 8.60367 24948 ft 411 kts 30°
2026-04-27 10:58 44.54670 8.62377 25425 ft 413 kts 30°
2026-04-27 10:58 44.57155 8.64429 25890 ft 415 kts 30°
2026-04-27 10:58 44.59656 8.66495 26346 ft 418 kts 30°
2026-04-27 10:59 44.62168 8.68570 26810 ft 420 kts 29°
2026-04-27 10:59 44.64694 8.70652 27259 ft 422 kts 29°
2026-04-27 10:59 44.67232 8.72742 27689 ft 424 kts 29°
2026-04-27 11:00 44.72353 8.76953 28511 ft 428 kts 29°
2026-04-27 11:00 44.74941 8.79088 28943 ft 430 kts 29°
2026-04-27 11:00 44.76658 8.80509 29199 ft 432 kts 29°
2026-04-27 11:00 44.80094 8.83362 29703 ft 434 kts 29°
2026-04-27 11:01 44.82697 8.85532 30070 ft 436 kts 29°
2026-04-27 11:01 44.85312 8.87715 30421 ft 438 kts 29°
2026-04-27 11:01 44.87942 8.89913 30755 ft 441 kts 29°
2026-04-27 11:01 44.89725 8.91402 30981 ft 442 kts 29°
2026-04-27 11:02 44.93240 8.94332 31397 ft 445 kts 28°
2026-04-27 11:02 44.95098 8.95697 31599 ft 445 kts 22°
2026-04-27 11:02 44.98002 8.97182 32000 ft 443 kts 14°
2026-04-27 11:02 45.01002 8.98040 32447 ft 440 kts
2026-04-27 11:03 45.04025 8.98720 32881 ft 439 kts
2026-04-27 11:03 45.07036 8.99404 33302 ft 438 kts
2026-04-27 11:03 45.10035 9.00088 33727 ft 436 kts
2026-04-27 11:03 45.13032 9.00771 34153 ft 435 kts
2026-04-27 11:04 45.15978 9.01445 34558 ft 434 kts
2026-04-27 11:04 45.18956 9.02125 34977 ft 433 kts
2026-04-27 11:04 45.21932 9.02804 35372 ft 433 kts
2026-04-27 11:04 45.24901 9.03478 35748 ft 432 kts
2026-04-27 11:05 45.27866 9.04150 36112 ft 431 kts
2026-04-27 11:05 45.30829 9.04824 36456 ft 431 kts
2026-04-27 11:05 45.33797 9.05501 36769 ft 431 kts
2026-04-27 11:05 45.36762 9.06178 37074 ft 431 kts
2026-04-27 11:06 45.39723 9.06855 37399 ft 430 kts
2026-04-27 11:06 45.42672 9.07530 37705 ft 430 kts
2026-04-27 11:06 45.45625 9.08208 37994 ft 429 kts
2026-04-27 11:06 45.48574 9.08888 38115 ft 430 kts
2026-04-27 11:07 45.54469 9.10252 38150 ft 428 kts
2026-04-27 11:07 45.60353 9.11611 38142 ft 427 kts
2026-04-27 11:08 45.66246 9.12304 38145 ft 424 kts 354°
2026-04-27 11:08 45.72059 9.11385 38134 ft 422 kts 352°
2026-04-27 11:09 45.77896 9.10441 38136 ft 421 kts 352°
2026-04-27 11:09 45.83721 9.09503 38135 ft 420 kts 352°
2026-04-27 11:10 45.89524 9.08574 38133 ft 419 kts 352°
2026-04-27 11:10 45.95318 9.07644 38136 ft 418 kts 352°
2026-04-27 11:11 46.01108 9.06709 38136 ft 418 kts 352°
2026-04-27 11:11 46.06884 9.05771 38135 ft 417 kts 352°
2026-04-27 11:12 46.12652 9.04833 38134 ft 417 kts 352°
2026-04-27 11:12 46.18417 9.03907 38135 ft 417 kts 353°
2026-04-27 11:13 46.24165 9.03127 38142 ft 417 kts 353°
2026-04-27 11:13 46.29945 9.02401 38142 ft 417 kts 353°
2026-04-27 11:14 46.35731 9.01649 38143 ft 417 kts 353°
2026-04-27 11:14 46.41515 9.00869 38146 ft 417 kts 353°
2026-04-27 11:15 46.47287 9.00081 38101 ft 415 kts 353°
2026-04-27 11:15 46.50165 8.99693 37670 ft 415 kts 353°
2026-04-27 11:15 46.53046 8.99309 37160 ft 415 kts 353°
2026-04-27 11:16 46.55879 8.98898 36646 ft 414 kts 349°
2026-04-27 11:16 46.58640 8.97772 35822 ft 414 kts 334°
2026-04-27 11:16 46.61073 8.95533 34519 ft 419 kts 317°
2026-04-27 11:16 46.63067 8.92414 33123 ft 425 kts 311°
2026-04-27 11:17 46.65037 8.89144 31850 ft 428 kts 311°
2026-04-27 11:17 46.67003 8.85894 30679 ft 427 kts 311°
2026-04-27 11:17 46.68962 8.82669 29605 ft 423 kts 312°
2026-04-27 11:17 46.70903 8.79481 28567 ft 417 kts 312°
2026-04-27 11:18 46.72820 8.76338 27535 ft 412 kts 312°
2026-04-27 11:18 46.74712 8.73231 26528 ft 407 kts 311°
2026-04-27 11:18 46.76580 8.70158 25517 ft 402 kts 311°
2026-04-27 11:18 46.78420 8.67127 24505 ft 398 kts 311°
2026-04-27 11:19 46.80246 8.64123 23478 ft 393 kts 311°
2026-04-27 11:19 46.82049 8.61152 22479 ft 388 kts 311°
2026-04-27 11:19 46.83817 8.58235 21815 ft 377 kts 311°
2026-04-27 11:19 46.85508 8.55436 21409 ft 360 kts 311°
2026-04-27 11:20 46.87160 8.52701 21174 ft 359 kts 311°
2026-04-27 11:20 46.88812 8.49964 21185 ft 359 kts 311°
2026-04-27 11:20 46.90467 8.47217 21185 ft 360 kts 311°
2026-04-27 11:20 46.92100 8.44504 21191 ft 360 kts 311°
2026-04-27 11:21 46.93774 8.41720 21192 ft 360 kts 311°
2026-04-27 11:21 46.95409 8.38999 21192 ft 361 kts 311°
2026-04-27 11:21 46.97067 8.36239 21192 ft 361 kts 311°
2026-04-27 11:21 46.98729 8.33468 21191 ft 362 kts 311°
2026-04-27 11:22 47.00387 8.30694 21097 ft 361 kts 311°
2026-04-27 11:22 47.02036 8.27930 20454 ft 359 kts 311°
2026-04-27 11:22 47.03671 8.25191 19701 ft 355 kts 311°
2026-04-27 11:22 47.05289 8.22481 18947 ft 351 kts 311°
2026-04-27 11:23 47.06888 8.19800 18196 ft 347 kts 311°
2026-04-27 11:23 47.08461 8.17156 17448 ft 344 kts 311°
2026-04-27 11:23 47.10026 8.14525 16693 ft 340 kts 311°
2026-04-27 11:23 47.11576 8.11921 15944 ft 338 kts 311°
2026-04-27 11:24 47.13116 8.09331 15189 ft 335 kts 311°
2026-04-27 11:24 47.14641 8.06766 14442 ft 332 kts 311°
2026-04-27 11:24 47.16157 8.04214 13687 ft 329 kts 311°
2026-04-27 11:24 47.17637 8.01714 12951 ft 327 kts 311°
2026-04-27 11:25 47.19121 7.99204 12126 ft 324 kts 311°
2026-04-27 11:25 47.20601 7.96702 11244 ft 324 kts 311°
2026-04-27 11:25 47.22078 7.94204 10364 ft 322 kts 311°
2026-04-27 11:25 47.23549 7.91713 9428 ft 323 kts 311°
2026-04-27 11:26 47.25029 7.89205 8416 ft 325 kts 311°
2026-04-27 11:26 47.26511 7.86689 7407 ft 326 kts 311°
2026-04-27 11:26 47.27995 7.84165 6412 ft 326 kts 311°
2026-04-27 11:26 47.29448 7.81688 5919 ft 311 kts 311°
2026-04-27 11:27 47.30807 7.79373 5760 ft 287 kts 311°
2026-04-27 11:27 47.32061 7.77235 5681 ft 264 kts 311°
2026-04-27 11:27 47.33212 7.75270 5696 ft 241 kts 311°
2026-04-27 11:27 47.34258 7.73481 5697 ft 221 kts 311°
2026-04-27 11:28 47.35255 7.71778 5699 ft 218 kts 311°
2026-04-27 11:28 47.36230 7.70115 5698 ft 217 kts 311°
2026-04-27 11:28 47.37238 7.68418 5696 ft 217 kts 315°
2026-04-27 11:28 47.38450 7.67163 5706 ft 216 kts 333°
2026-04-27 11:29 47.39802 7.66192 5665 ft 217 kts 336°
2026-04-27 11:29 47.41169 7.65256 5421 ft 216 kts 335°
2026-04-27 11:29 47.42525 7.64323 5116 ft 214 kts 336°
2026-04-27 11:29 47.43873 7.63393 4799 ft 214 kts 335°
2026-04-27 11:30 47.45219 7.62463 4462 ft 213 kts 336°
2026-04-27 11:30 47.46560 7.61537 4133 ft 213 kts 334°
2026-04-27 11:30 47.47909 7.60604 3798 ft 213 kts 335°
2026-04-27 11:30 47.49227 7.59692 3488 ft 204 kts 335°
2026-04-27 11:31 47.50474 7.58829 3161 ft 190 kts 335°
2026-04-27 11:31 47.51586 7.58058 2887 ft 164 kts 335°
2026-04-27 11:31 47.52561 7.57382 2641 ft 147 kts 335°
2026-04-27 11:31 47.53460 7.56760 2427 ft 139 kts 336°
2026-04-27 11:32 47.54329 7.56152 2159 ft 135 kts 333°
2026-04-27 11:32 47.55199 7.55634 1974 ft 134 kts 339°
2026-04-27 11:32 47.56030 7.55042 1701 ft 131 kts 333°
2026-04-27 11:32 47.56802 7.54364 1377 ft 126 kts 335°
2026-04-27 11:33 47.57584 7.53806 1185 ft 125 kts 342°
2026-04-27 11:33 47.58405 7.53333 1016 ft 127 kts 339°
2026-04-27 11:33 47.59195 7.52773 895 ft 126 kts 335°
2026-04-27 11:33 47.59908 7.52296 888 ft 94 kts 334°
2026-04-27 11:34 47.60337 7.51983 887 ft 43 kts 334°
2026-04-27 11:34 47.60405 7.51934 886 ft 3 kts 332°
2026-04-27 11:34 47.60436 7.51910 886 ft 7 kts 332°
2026-04-27 11:34 47.60488 7.51883 886 ft 9 kts
2026-04-27 11:35 47.60528 7.51931 886 ft 0 kts 67°
2026-04-27 11:35 47.60531 7.51941 887 ft 2 kts 64°
2026-04-27 11:35 47.60534 7.51950 887 ft 0 kts 64°
2026-04-27 11:36 47.59790 7.53178 892 ft 0 kts 65°